SCP
0 0 0 0 0 0 0 0 0 0 0 0 0 0 0 0 0 0 0 0 0 0 0 0 0 0 0 0 0 0 0 0 0 0 0 0 0 0 0 0 0 0 0 0 0 0 0 0 0
0 0 0 0 0 0 0 0 0 0 0 0 0 0 0 0 0 0 0 0 0 0 0 0 0 0 0 0 0 0 0 0 0 0 0 0 0 0 0 0 0 0 0 0 0 0 0 0 0
0 0 0 0 0 0 0 0 0 0 0 0 0 0 0 0 0 0 0 0 0 0 0 0 0 0 0 0 0 0 0 0 0 0 0 0 0 0 0 0 0 0 0 0 0 0 0 0 0
0 0 0 0 0 0 0 0 0 0 0 0 0 0 0 0 0 0 0 0 0 0 0 0 0 0 0 0 0 0 0 0 0 0 0 0 0 0 0 0 0 0 0 0 0 0 0 0 0
0 0 0 0 0 0 0 0 0 0 0 0 0 0 0 0 0 0 0 0 0 0 0 0 0 0 0 0 0 0 0 0 0 0 0 0 0 0 0 0 0 0 0 0 0 0 0 0 0
0 0 0 0 0 0 0 0 0 0 0 0 0 0 0 0 0 0 0 0 0 0 0 0 0 0 0 0 0 0 0 0 0 0 0 0 0 0 0 0 0 0 0 0 0 0 0 0 0
0 0 0 0 0 0 0 0 0 0 0 0 0 0 0 0 0 0 0 0 0 0 0 0 0 0 0 0 0 0 0 0 0 0 0 0 0 0 0 0 0 0 0 0 0 0 0 0 0
0 0 0 0 0 0 0 0 0 0 0 0 0 0 0 0 0 0 0 0 0 0 0 0 0 0 0 0 0 0 0 0 0 0 0 0 0 0 0 0 0 0 0 0 0 0 0 0 0
0 0 0 0 0 0 0 0 0 0 0 0 0 0 0 0 0 0 0 0 0 0 0 0 0 0 0 0 0 0 0 0 0 0 0 0 0 0 0 0 0 0 0 0 0 0 0 0 0
0 0 0 0 0 0 0 0 0 0 0 0 0 0 0 0 0 0 0 0 0 0 0 0 0 0 0 0 0 0 0 0 0 0 0 0 0 0 0 0 0 0 0 0 0 0 0 0 0
0 0 0 0 0 0 0 0 0 0 0 0 0 0 0 0 0 0 0 0 0 0 0 0 0 0 0 0 0 0 0 0 0 0 0 0 0 0 0 0 0 0 0 0 0 0 0 0 0
0 0 0 0 0 0 0 0 0 0 0 0 0 0 0 0 0 0 0 0 0 0 0 0 0 0 0 0 0 0 0 0 0 0 0 0 0 0 0 0 0 0 0 0 0 0 0 0 0
0 0 0 0 0 0 0 0 0 0 0 0 0 0 0 0 0 0 0 0 0 0 0 0 0 0 0 0 0 0 0 0 0 0 0 0 0 0 0 0 0 0 0 0 0 0 0 0 0
0 0 0 0 0 0 0 0 0 0 0 0 0 0 0 0 0 0 0 0 0 0 0 0 0 0 0 0 0 0 0 0 0 0 0 0 0 0 0 0 0 0 0 0 0 0 0 0 0
0 0 0 0 0 0 0 0 0 0 0 0 0 0 0 0 0 0 0 0 0 0 0 0 0 0 0 0 0 0 0 0 0 0 0 0 0 0 0 0 0 0 0 0 0 0 0 0 0
0 0 0 0 0 0 0 0 0 0 0 0 0 0 0 0 0 0 0 0 0 0 0 0 0 0 0 0 0 0 0 0 0 0 0 0 0 0 0 0 0 0 0 0 0 0 0 0 0
0 0 0 0 0 0 0 0 0 0 0 0 0 0 0 0 0 0 0 0 0 0 0 0 0 0 0 0 0 0 0 0 0 0 0 0 0 0 0 0 0 0 0 0 0 0 0 0 0
0 0 0 0 0 0 0 0 0 0 0 0 0 0 0 0 0 0 0 0 0 0 0 0 0 0 0 0 0 0 0 0 0 0 0 0 0 0 0 0 0 0 0 0 0 0 0 0 0
0 0 0 0 0 0 0 0 0 0 0 0 0 0 0 0 0 0 0 0 0 0 0 0 0 0 0 0 0 0 0 0 0 0 0 0 0 0 0 0 0 0 0 0 0 0 0 0 0
0 0 0 0 0 0 0 0 0 0 0 0 0 0 0 0 0 0 0 0 0 0 0 0 0 0 0 0 0 0 0 0 0 0 0 0 0 0 0 0 0 0 0 0 0 0 0 0 0
0 0 0 0 0 0 0 0 0 0 0 0 0 0 0 0 0 0 0 0 0 0 0 0 0 0 0 0 0 0 0 0 0 0 0 0 0 0 0 0 0 0 0 0 0 0 0 0 0
0 0 0 0 0 0 0 0 0 0 0 0 0 0 0 0 0 0 0 0 0 0 0 0 0 0 0 0 0 0 0 0 0 0 0 0 0 0 0 0 0 0 0 0 0 0 0 0 0
0 0 0 0 0 0 0 0 0 0 0 0 0 0 0 0 0 0 0 0 0 0 0 0 0 0 0 0 0 0 0 0 0 0 0 0 0 0 0 0 0 0 0 0 0 0 0 0 0
0 0 0 0 0 0 0 0 0 0 0 0 0 0 0 0 0 0 0 0 0 0 0 0 0 0 0 0 0 0 0 0 0 0 0 0 0 0 0 0 0 0 0 0 0 0 0 0 0
0 0 0 0 0 0 0 0 0 0 0 0 0 0 0 0 0 0 0 0 0 0 0 0 0 0 0 0 0 0 0 0 0 0 0 0 0 0 0 0 0 0 0 0 0 0 0 0 0
0 0 0 0 0 0 0 0 0 0 0 0 0 0 0 0 0 0 0 0 0 0 0 0 0 0 0 0 0 0 0 0 0 0 0 0 0 0 0 0 0 0 0 0 0 0 0 0 0
0 0 0 0 0 0 0 0 0 0 0 0 0 0 0 0 0 0 0 0 0 0 0 0 0 0 0 0 0 0 0 0 0 0 0 0 0 0 0 0 0 0 0 0 0 0 0 0 0
0 0 0 0 0 0 0 0 0 0 0 0 0 0 0 0 0 0 0 0 0 0 0 0 0 0 0 0 0 0 0 0 0 0 0 0 0 0 0 0 0 0 0 0 0 0 0 0 0
0 0 0 0 0 0 0 0 0 0 0 0 0 0 0 0 0 0 0 0 0 0 0 0 0 0 0 0 0 0 0 0 0 0 0 0 0 0 0 0 0 0 0 0 0 0 0 0 0
0 0 0 0 0 0 0 0 0 0 0 0 0 0 0 0 0 0 0 0 0 0 0 0 0 0 0 0 0 0 0 0 0 0 0 0 0 0 0 0 0 0 0 0 0 0 0 0 0
Wind_Speed
10 7 3 1 4 6 3 3 2 3 3 3 5 6 6 4 2 1 1 2 2 2 1 3 5 6 7 7 7 8 8 9 9 10 9 9 9 10 11 11 11 12 13 13 13 14 15 15 15
7 6 2 3 5 4 3 3 4 4 3 3 5 6 6 5 3 3 1 1 3 2 1 2 5 6 6 7 8 9 9 9 9 9 9 9 9 9 11 11 11 12 12 13 13 14 14 14 14
6 3 2 4 4 3 2 1 4 5 3 2 4 5 4 3 2 1 1 3 2 2 2 2 5 5 7 7 7 8 9 9 9 9 9 9 8 9 10 11 11 12 12 13 13 14 13 13 13
3 2 4 5 4 0 3 4 5 5 4 5 4 5 4 3 2 1 3 4 3 2 2 2 5 5 6 7 7 8 8 8 9 9 9 8 8 8 9 10 10 11 12 12 12 13 12 11 12
2 4 6 4 3 2 3 4 4 4 4 5 5 5 3 3 5 5 5 4 4 2 1 2 4 5 5 6 6 7 7 8 8 8 8 8 7 8 9 10 10 11 11 11 11 11 11 10 10
4 4 5 2 2 3 3 4 5 6 5 4 4 4 3 2 4 4 4 3 3 2 2 2 3 4 5 5 5 6 6 7 7 8 8 7 7 8 8 9 10 11 11 11 10 10 9 9 9
4 4 3 3 2 2 3 3 4 5 5 3 3 4 2 1 2 3 4 4 4 3 3 3 3 3 4 4 5 5 5 5 6 6 7 7 7 7 7 8 9 10 10 10 10 9 9 8 8
4 5 3 1 3 2 3 4 4 5 4 4 4 5 3 2 3 4 5 4 4 4 3 3 3 3 3 3 4 4 4 5 5 5 6 6 6 6 7 7 8 9 9 9 9 8 7 7 7
3 5 2 4 5 3 4 4 3 4 6 3 3 4 4 8 6 5 4 3 3 2 3 3 3 2 2 2 3 3 4 4 4 4 5 5 3 3 4 5 7 8 8 8 8 7 6 6 6
4 3 5 4 6 6 5 4 4 5 5 4 6 7 8 8 7 5 3 2 1 1 1 1 2 2 2 2 2 2 2 3 3 3 3 3 3 3 3 4 6 7 6 6 6 5 5 4 2
4 4 3 3 5 8 6 4 3 7 3 4 9 10 9 7 6 4 3 2 2 1 1 1 1 1 1 1 1 1 2 2 2 3 3 3 3 3 3 2 3 3 4 3 4 3 2 2 2
3 1 3 4 6 7 7 5 5 3 3 7 10 11 9 8 6 5 4 3 1 1 0 0 1 1 2 2 2 2 1 1 2 2 3 3 2 2 2 2 2 2 2 2 2 2 2 2 2
3 2 3 6 8 7 7 6 5 3 5 9 10 10 8 7 5 3 3 3 2 1 1 1 1 1 1 2 1 2 1 1 2 2 2 2 2 2 2 2 2 2 2 2 2 2 2 1 2
2 5 6 7 8 5 8 4 4 3 7 9 9 8 7 7 6 4 3 3 2 2 2 1 2 2 2 2 2 1 1 1 1 1 1 2 2 2 2 1 1 1 1 1 1 1 2 1 1
5 7 7 4 4 4 7 4 1 6 8 9 8 7 6 5 5 5 5 4 3 2 2 2 2 2 2 2 2 1 1 1 1 1 1 1 2 2 2 1 1 1 1 2 2 2 2 2 2
5 6 3 1 3 4 6 2 3 7 9 7 7 6 5 4 4 4 4 4 3 3 3 2 2 3 2 2 2 1 1 1 1 1 1 1 1 2 2 1 1 1 1 2 2 2 2 2 2
4 3 2 2 4 4 4 3 4 7 8 7 6 6 5 4 3 4 4 4 4 3 3 3 2 3 3 2 2 2 2 1 1 1 1 1 1 2 2 1 1 1 1 1 2 2 2 2 2
4 3 3 5 5 5 3 3 5 8 8 7 6 5 5 6 5 4 5 5 4 3 3 3 2 2 3 2 2 2 2 1 1 1 0 1 1 1 2 2 1 2 2 1 2 2 2 2 2
6 5 3 4 4 5 5 4 6 8 7 7 6 6 6 6 5 4 5 5 4 3 3 3 3 2 2 2 2 1 1 1 1 1 1 1 1 2 2 2 1 1 1 1 2 2 2 2 2
5 4 2 0 3 5 3 2 4 7 10 9 9 9 8 6 4 5 5 5 5 4 4 3 3 3 3 2 2 1 1 0 1 1 2 1 1 1 1 2 1 1 1 2 2 2 2 1 1
3 6 5 4 3 4 4 1 3 4 5 6 7 7 8 9 9 7 7 6 5 5 5 4 4 4 3 3 3 2 2 2 2 2 1 1 1 1 1 1 1 1 1 1 1 1 2 1 1
3 4 6 6 6 1 3 2 6 5 5 8 9 9 9 9 8 7 7 7 7 6 5 4 4 4 3 4 4 3 2 1 0 0 0 1 1 1 1 1 1 1 1 1 1 1 1 2 1
4 4 5 5 5 3 1 2 7 2 7 12 13 13 11 10 9 9 9 8 7 6 5 5 4 3 3 4 4 4 2 1 0 1 1 1 1 1 1 1 1 1 1 1 1 1 1 1 2
6 8 8 7 5 0 3 3 7 6 11 9 12 13 12 11 10 9 7 6 5 5 5 5 5 4 4 4 4 4 4 2 1 1 1 1 1 1 1 0 1 1 1 1 1 1 2 1 2
6 7 4 4 3 5 2 3 10 9 9 10 11 13 12 11 10 9 9 8 7 7 6 6 6 5 4 4 4 4 4 4 3 2 1 0 0 1 1 1 0 0 0 1 1 1 1 1 1
5 9 9 7 6 5 1 6 9 6 5 6 7 8 9 10 10 11 11 10 9 8 7 7 6 5 5 5 4 3 3 3 2 2 1 1 1 1 1 1 1 1 1 1 1 1 1 1 1
6 3 6 8 3 1 4 7 9 2 1 2 5 7 9 11 11 11 10 9 9 8 8 8 7 5 5 5 4 3 3 3 2 2 1 1 0 0 1 1 1 1 1 1 1 1 0 1 0
5 9 6 7 7 3 4 4 5 5 4 4 5 7 8 8 9 9 9 9 8 8 7 6 6 6 5 5 4 4 3 3 3 2 2 1 0 0 1 1 1 1 1 1 1 1 1 1 0
4 5 6 5 6 7 4 8 7 8 7 6 7 7 8 9 10 9 8 8 8 7 7 6 6 6 5 5 4 4 3 3 2 2 2 1 1 1 1 1 1 1 2 1 1 1 1 1 1
4 7 8 7 4 4 5 9 5 5 5 6 6 6 7 8 8 8 8 8 8 8 7 7 7 6 6 5 5 4 3 3 3 2 1 2 2 2 2 2 2 2 2 2 2 1 1 1 1
Wind_Direction
150 145 146 123 55 52 35 14 50 55 46 35 60 73 80 60 66 121 308 114 96 81 70 96 87 87 92 97 100 100 101 107 108 109 109 109 110 117 121 121 120 120 122 123 122 123 127 128 130
144 150 156 62 72 64 13 16 63 67 119 123 68 63 63 52 44 85 42 111 96 95 75 102 93 86 90 96 99 100 99 102 105 109 109 109 108 114 120 122 123 124 125 126 125 125 127 127 129
155 171 86 66 75 122 130 90 103 99 96 68 66 55 62 58 62 110 168 119 90 86 75 98 99 94 96 93 96 98 96 100 101 104 106 107 109 110 117 122 124 125 125 126 126 126 125 126 130
142 69 57 65 62 85 153 151 134 119 67 46 75 64 53 50 112 134 117 111 108 91 72 81 98 96 97 97 92 93 93 96 97 100 103 104 109 113 119 124 124 124 124 124 123 124 123 124 127
77 77 61 54 39 48 103 134 119 93 70 59 70 77 43 25 75 96 103 104 104 89 54 65 96 96 97 100 96 94 97 98 97 97 96 96 102 116 123 126 126 127 127 125 124 124 122 124 130
66 69 76 84 72 68 93 107 96 87 87 79 73 77 49 54 80 93 94 92 90 82 53 52 85 93 91 95 99 102 102 99 96 94 92 92 96 108 116 120 126 128 128 128 128 128 128 129 132
101 90 109 130 113 112 145 111 105 107 94 87 94 81 61 49 81 90 78 73 62 50 43 27 22 40 69 79 90 96 96 95 92 90 90 92 96 105 112 121 124 125 126 128 129 131 133 131 132
131 98 89 115 135 144 128 101 101 100 98 105 96 115 155 172 105 85 72 58 49 41 33 23 23 26 26 43 79 84 85 85 84 82 83 87 92 106 111 116 122 125 127 129 131 133 134 134 134
103 79 148 183 164 154 133 110 102 80 98 85 80 112 136 125 112 92 79 57 42 39 20 18 19 23 25 32 56 65 67 61 59 61 67 64 53 71 99 113 122 125 126 129 133 132 131 130 131
94 124 207 189 161 143 132 120 132 104 95 86 82 88 113 123 126 124 125 134 113 23 3 10 8 21 25 34 45 36 33 35 40 40 46 48 49 53 77 101 113 114 112 116 122 125 121 112 107
131 173 189 140 136 125 124 116 103 121 133 160 146 140 138 136 139 147 157 170 189 197 30 11 4 22 47 41 59 52 38 34 39 43 50 53 51 50 56 68 80 82 84 77 84 77 75 94 112
124 162 149 135 120 119 129 119 101 127 178 152 147 144 144 150 160 170 171 177 169 138 175 336 29 56 57 60 62 60 52 43 42 42 50 63 59 50 55 67 64 66 69 69 70 80 75 77 102
94 81 91 106 101 107 97 97 108 95 119 126 134 139 151 159 167 171 164 160 155 163 187 172 122 107 88 83 69 64 55 50 52 52 53 75 78 67 62 59 63 65 69 73 73 75 78 78 80
107 89 85 91 97 101 107 94 94 133 132 133 143 152 160 165 163 153 153 158 172 185 191 147 133 134 112 99 95 89 78 66 58 57 62 88 100 93 82 73 75 77 87 96 98 96 90 80 82
88 81 63 73 90 115 104 71 149 158 144 147 157 161 162 169 163 166 173 173 177 178 166 143 142 125 117 107 102 87 71 77 74 60 70 111 124 126 127 114 94 91 98 102 95 84 85 93 93
63 71 91 191 118 130 114 182 196 157 152 160 168 169 171 181 179 176 169 168 172 156 145 151 150 134 128 117 103 90 81 75 54 49 53 76 124 138 137 127 111 96 103 105 107 99 91 84 87
43 119 171 197 174 147 141 193 186 165 164 173 178 176 178 185 191 184 174 172 174 171 158 151 140 133 129 116 98 83 74 73 51 49 43 44 94 123 132 131 111 93 95 99 116 104 111 105 96
192 175 188 199 192 150 167 195 171 175 178 185 184 182 185 194 206 189 178 173 170 168 157 153 139 126 116 99 79 61 54 41 42 56 62 55 75 104 113 108 87 85 93 86 95 106 97 107 115
160 158 190 218 179 148 183 192 184 178 187 196 196 193 197 207 205 182 175 168 160 164 162 164 149 140 117 96 86 73 43 15 22 37 51 67 87 99 103 100 97 101 114 122 117 116 110 103 107
145 149 177 98 132 141 163 216 195 190 201 202 199 200 200 204 197 188 178 174 177 179 177 174 171 157 148 133 126 129 121 71 47 40 40 48 78 94 123 122 123 119 118 107 118 131 131 135 136
170 173 178 158 93 67 102 329 209 216 210 215 213 206 200 199 197 195 185 185 185 188 187 187 183 169 159 139 112 88 63 43 35 26 14 17 52 63 84 106 114 115 119 128 130 140 142 153 141
218 202 161 140 124 173 142 242 262 215 214 219 218 211 209 204 195 193 191 189 190 195 186 182 172 166 156 140 137 136 132 131 242 302 348 2 31 65 86 101 113 123 123 137 183 139 146 148 164
182 117 117 119 118 87 51 175 280 197 227 229 219 213 210 200 190 193 194 193 190 184 179 176 165 163 154 150 154 148 140 154 104 39 23 12 14 32 45 102 120 139 143 157 143 118 135 149 164
124 79 60 52 72 79 222 174 271 220 217 221 214 210 205 195 189 191 190 180 178 175 173 168 162 170 161 155 153 154 152 146 119 83 41 10 8 6 7 74 134 160 163 170 165 155 155 174 173
109 99 57 20 19 248 230 193 249 239 221 212 206 204 200 189 183 182 181 181 181 178 177 174 169 178 170 159 160 161 157 154 159 169 171 154 17 352 340 14 56 142 193 169 150 146 161 177 171
166 141 153 177 203 255 231 229 254 260 238 218 202 189 184 184 183 185 186 186 185 183 179 177 177 179 169 165 168 163 159 161 172 180 170 178 206 249 329 31 37 35 52 90 119 123 172 155 187
139 157 153 128 142 167 265 278 299 302 265 196 181 175 183 184 184 185 183 183 184 182 181 181 177 174 173 170 160 155 162 165 170 165 155 166 190 174 43 63 55 40 47 56 93 90 125 125 177
132 140 106 120 142 207 274 266 250 261 244 208 190 191 188 180 180 181 182 184 184 183 178 172 171 174 172 167 168 168 170 171 168 149 146 148 137 107 90 73 64 51 45 50 82 71 29 60 337
109 100 105 112 147 154 210 260 228 221 220 206 205 197 183 178 181 183 182 179 174 168 165 165 170 165 162 167 165 161 165 160 157 151 162 166 143 123 113 108 89 68 49 46 72 54 44 40 354
150 158 146 149 192 168 171 258 267 231 222 200 198 190 179 174 175 175 172 166 164 167 166 168 171 170 172 166 159 160 157 148 152 148 146 131 119 106 111 107 95 79 58 53 63 54 52 58 24